This demonstration page uses our WeatherBlox Daily Observations layout. Learn more.

36.17497, -115.13722

Hourly Observations for February 24, 2020

Temp ( °F °C ) Dew Point ( °F °C ) Humidity (%) Winds ( mph kmh ) Pressure ( in mb ) Visibility ( mi km ) Precip ( " mm )
12:53 am 00:53 Clear 50 10 40 4.4 68 68 N 7 11 30.2 1023 10 16.0934 0 0
1:53 am 01:53 Clear 49 9.4 39 3.9 69 69 NW 3 6 30.19 1022 10 16.0934 0 0
2:53 am 02:53 Clear 49 9.4 39 3.9 69 69 Calm 30.17 1022 10 16.0934 0 0
3:53 am 03:53 Clear 54 12.2 34 1.1 47 47 NW 15 24 30.16 1021 10 16.0934 0 0
4:53 am 04:53 Clear 50 10 39 3.9 66 66 SSW 6 9 30.19 1022 10 16.0934 0 0
5:23 am 05:23 Clear 59 15 31 -0.6 35 35 NW 17 28 30.11 1020 10 16.0934 0 0
5:53 am 05:53 Clear 49 9.4 39 3.9 69 69 ESE 6 9 30.2 1023 10 16.0934 0 0
6:53 am 06:53 Sunny 51 10.6 40 4.4 66 66 ESE 5 7 30.22 1024 10 16.0934 0 0
7:53 am 07:53 Sunny 59 15 31 -0.6 35 35 VRB 7 11 30.25 1024 10 16.0934 0 0
8:53 am 08:53 Sunny 57 13.9 42 5.6 58 58 SE 7 11 30.27 1025 10 16.0934 0 0
9:53 am 09:53 Sunny 62 16.7 42 5.6 48 48 ESE 12 19 30.26 1025 10 16.0934 0 0
10:43 am 10:43 Sunny 69 20.6 18 -7.8 14 14 NNW 14 22 30.13 1020 10 16.0934 0 0
10:53 am 10:53 Sunny 70 21.1 17 -8.3 13 13 N 18 30 30.24 1024 10 16.0934 0 0
11:53 am 11:53 Sunny 71 21.7 13 -10.6 10 10 NNW 16 26 30.23 1024 10 16.0934 0 0
12:53 pm 12:53 Sunny 71 21.7 17 -8.3 13 13 N 14 22 30.2 1023 10 16.0934 0 0
1:53 pm 13:53 Sunny 68 20 34 1.1 28 28 E 7 11 30.19 1022 10 16.0934 0 0
2:53 pm 14:53 Sunny 68 20 31 -0.6 25 25 VRB 3 6 30.17 1022 10 16.0934 0 0
3:53 pm 15:53 Sunny 68 20 30 -1.1 24 24 E 10 17 30.15 1021 10 16.0934 0 0
4:53 pm 16:53 Sunny 67 19.4 30 -1.1 25 25 ENE 7 11 30.15 1021 10 16.0934 0 0
5:53 pm 17:53 Clear 63 17.2 32 0 31 31 E 3 6 30.17 1022 10 16.0934 0 0
6:53 pm 18:53 Clear 62 16.7 32 0 32 32 Calm 30.18 1022 10 16.0934 0 0
7:53 pm 19:53 Clear 58 14.4 33 0.6 39 39 NNW 7 11 30.19 1022 10 16.0934 0 0
8:53 pm 20:53 Clear 56 13.3 33 0.6 42 42 Calm 30.21 1023 10 16.0934 0 0
9:53 pm 21:53 Clear 59 15 21 -6.1 23 23 NE 6 9 30.22 1023 10 16.0934 0 0
10:53 pm 22:53 Clear 59 15 17 -8.3 19 19 NNE 7 11 30.23 1024 10 16.0934 0 0
11:53 pm 23:53 Clear 60 15.6 16 -8.9 18 18 N 13 20 30.23 1024 10 16.0934 0 0

Powered by AerisWeather